SCP
1 1 0 0 0 0 0 0 0 0 0 0 0 0 0 0 0 0 0 0 0 0 0 0 0 0 0 0 0 0 0 0 0 0 0 0 0 0 0 0 0 0 0 0
1 0 0 0 0 0 0 0 0 0 0 0 0 0 0 0 0 0 0 0 0 0 0 0 0 0 0 0 0 0 0 0 0 0 0 0 0 0 0 0 0 0 0 0
0 0 0 0 0 0 0 0 0 0 0 0 0 0 0 0 0 0 0 0 0 0 0 0 0 0 0 0 0 0 0 0 0 0 0 0 0 0 0 0 0 0 0 0
0 0 0 0 0 0 0 0 0 0 0 0 0 0 0 0 0 0 0 0 0 0 0 0 0 0 0 0 0 0 0 0 0 0 0 0 0 0 0 0 0 0 0 0
0 0 0 0 0 0 0 0 0 0 0 0 0 0 0 0 0 0 0 0 0 0 0 0 0 0 0 0 0 0 0 0 0 0 0 0 0 0 0 0 0 0 0 0
0 0 0 0 0 0 0 0 0 0 0 0 0 0 0 0 0 0 0 0 0 0 0 0 0 0 0 0 0 0 0 0 0 0 0 0 0 0 0 0 0 0 0 0
0 0 0 0 0 0 0 0 0 0 0 0 0 0 0 0 0 0 0 0 0 0 0 0 0 0 0 0 0 0 0 0 0 0 0 0 0 0 0 0 0 0 0 0
0 0 0 0 0 0 0 0 0 0 0 0 0 0 0 0 0 0 0 0 0 0 0 0 0 0 0 0 0 0 0 0 0 0 0 0 0 0 0 0 0 0 0 0
0 0 0 0 0 0 0 0 0 0 0 0 0 0 0 0 0 0 0 0 0 0 0 0 0 0 0 0 0 0 0 0 0 0 0 0 0 0 0 0 0 0 0 0
0 0 0 0 0 0 0 0 0 0 0 0 0 0 0 0 0 0 0 0 0 0 0 0 0 0 0 0 0 0 0 0 0 0 0 0 0 0 0 0 0 0 0 0
0 0 0 0 0 0 0 0 0 0 0 0 0 0 0 0 0 0 0 0 0 0 0 0 0 0 0 0 0 0 0 0 0 0 0 0 0 0 0 0 0 0 0 0
0 0 0 0 0 0 0 0 0 0 0 0 0 0 0 0 0 0 0 0 0 0 0 0 0 0 0 0 0 0 0 0 0 0 0 0 0 0 0 0 0 0 0 0
0 0 0 0 0 0 0 0 0 0 0 0 0 0 0 0 0 0 0 0 0 0 0 0 0 0 0 0 0 0 0 0 0 0 0 0 0 0 0 0 0 0 0 0
0 0 0 0 0 0 0 0 0 0 0 0 0 0 0 0 0 0 0 0 0 0 0 0 0 0 0 0 0 0 0 0 0 0 0 0 0 0 0 0 0 0 0 0
0 0 0 0 0 0 0 0 0 0 0 0 0 0 0 0 0 0 0 0 0 0 0 0 0 0 0 0 0 0 0 0 0 0 0 0 0 0 0 0 0 0 0 0
0 0 0 0 0 0 0 0 0 0 0 0 0 0 0 0 0 0 0 0 0 0 0 0 0 0 0 0 0 0 0 0 0 0 0 0 0 0 0 0 0 0 0 0
0 0 0 0 0 0 0 0 0 0 0 0 0 0 0 0 0 0 0 0 0 0 0 0 0 0 0 0 0 0 0 0 0 0 0 0 0 0 0 0 0 0 0 0
0 0 0 0 0 0 0 0 0 0 0 0 0 0 0 0 0 0 0 0 0 0 0 0 0 0 0 0 0 0 0 0 0 0 0 0 0 0 0 0 0 0 0 0
0 0 0 0 0 0 0 0 0 0 0 0 0 0 0 0 0 0 0 0 0 0 0 0 0 0 0 0 0 0 0 0 0 0 0 0 0 0 0 0 0 0 0 0
0 0 0 0 0 0 0 0 0 0 0 0 0 0 0 0 0 0 0 0 0 0 0 0 0 0 0 0 0 0 0 0 0 0 0 0 0 0 0 0 0 0 0 0
0 0 0 0 0 0 0 0 0 0 0 0 0 0 0 0 0 0 0 0 0 0 0 0 0 0 0 0 0 0 0 0 0 0 0 0 0 0 0 0 0 0 0 0
0 0 0 0 0 0 0 0 0 0 0 0 0 0 0 0 0 0 0 0 0 0 0 0 0 0 0 0 0 0 0 0 0 0 0 0 0 0 0 0 0 0 0 0
0 0 0 0 0 0 0 0 0 0 0 0 0 0 0 0 0 0 0 0 0 0 0 0 0 0 0 0 0 0 0 0 0 0 0 0 0 0 0 0 0 0 0 0
0 0 0 0 0 0 0 0 0 0 0 0 0 0 0 0 0 0 0 0 0 0 0 0 0 0 0 0 0 0 0 0 0 0 0 0 0 0 0 0 0 0 0 0
0 0 0 0 0 0 0 0 0 0 0 0 0 0 0 0 0 0 0 0 0 0 0 0 0 0 0 0 0 0 0 0 0 0 0 0 0 0 0 0 0 0 0 0
0 0 0 0 0 0 0 0 0 0 0 0 0 0 0 0 0 0 0 0 0 0 0 0 0 0 0 0 0 0 0 0 0 0 0 0 0 0 0 0 0 0 0 0
Wind_Speed
7 9 14 16 17 10 7 10 11 8 4 7 15 18 17 14 13 15 15 15 15 15 14 11 10 9 9 10 10 11 10 10 8 7 7 6 7 7 6 6 7 8 8 8
7 16 16 11 12 11 11 12 11 7 5 7 13 19 19 18 18 18 17 17 16 15 13 11 10 9 10 10 10 10 10 10 10 8 7 5 5 5 5 5 6 7 8 8
17 7 10 13 13 15 16 16 13 9 5 7 11 17 16 14 14 15 17 17 17 16 15 12 10 10 10 10 10 9 10 9 10 9 6 5 4 3 4 6 5 7 7 7
15 11 9 13 16 16 16 13 11 10 9 8 6 13 12 10 12 14 16 16 16 15 14 12 11 11 10 10 8 9 9 9 9 9 9 10 8 7 6 5 5 5 6 6
11 11 13 16 16 15 9 6 9 10 11 12 10 13 13 7 13 14 14 14 14 13 12 12 11 10 9 8 8 8 8 8 8 9 10 10 8 6 5 4 5 5 4 5
9 6 11 12 9 12 6 4 3 6 7 14 16 15 15 10 13 12 11 10 11 10 10 11 10 9 8 7 7 7 8 8 8 9 9 10 9 8 7 6 5 4 3 3
10 10 7 6 8 10 11 8 6 7 10 13 9 14 15 9 10 11 10 10 9 8 9 9 9 9 8 8 7 7 8 8 8 8 9 9 9 9 8 7 6 5 4 3
12 11 13 11 13 11 16 15 11 10 10 8 8 15 11 6 8 9 10 10 8 8 7 7 8 7 7 7 7 7 8 7 7 8 8 8 8 6 5 6 5 5 3 3
11 9 7 11 10 13 13 15 11 7 4 8 11 11 12 8 10 10 10 9 9 8 7 7 6 6 6 6 6 6 6 6 6 7 7 7 7 7 6 5 5 3 3 2
7 6 5 6 6 12 11 10 7 9 9 13 14 15 11 9 13 11 10 10 9 7 6 6 5 5 5 5 5 5 5 5 5 5 5 4 5 6 5 5 5 4 3 3
8 7 4 7 13 15 12 13 10 8 8 10 12 11 7 10 8 8 8 7 6 5 5 5 4 4 4 4 4 5 5 5 5 4 4 4 4 4 4 4 4 3 2 2
10 7 7 10 6 9 14 15 16 11 10 9 10 12 2 5 5 5 5 5 4 4 4 4 4 4 5 5 5 5 5 5 4 4 4 4 4 4 4 3 3 2 2 2
8 7 6 5 5 7 11 14 16 13 8 9 12 13 1 3 4 4 5 5 4 4 4 4 4 5 5 6 6 5 5 5 4 4 4 4 4 4 3 3 2 2 1 1
7 6 10 12 7 8 11 14 15 14 11 14 20 21 13 8 7 6 6 6 5 5 5 5 6 6 6 6 6 6 6 5 5 5 5 5 4 3 3 2 2 1 1 1
7 8 9 11 7 8 12 16 17 20 19 17 20 23 22 15 13 12 11 9 9 9 8 9 8 8 7 7 7 7 6 5 5 5 5 4 4 3 3 2 1 1 1 1
7 6 6 9 11 10 12 16 19 22 22 23 22 24 20 15 12 14 13 12 13 13 12 11 9 9 9 9 9 8 8 7 6 6 5 4 4 3 3 2 2 1 1 1
7 6 6 8 6 7 14 19 20 19 19 19 23 25 18 15 15 16 14 14 15 15 13 12 11 11 10 10 10 10 8 7 7 6 5 5 5 4 3 3 2 2 1 1
9 7 5 4 5 14 12 9 16 19 21 20 19 19 19 17 15 13 13 14 15 14 13 12 11 10 9 8 8 8 7 7 7 6 6 5 5 4 4 3 3 2 1 2
13 10 6 6 9 11 10 7 11 15 17 17 19 21 19 13 10 13 12 11 13 13 11 10 9 8 8 8 8 8 7 7 7 6 6 5 5 4 4 4 3 2 2 2
12 11 8 8 9 11 10 5 6 7 13 13 15 18 17 9 10 12 7 7 9 9 7 6 5 5 6 6 7 8 8 8 8 7 5 5 4 4 4 3 2 2 2 2
10 11 14 14 13 11 8 3 8 10 10 7 9 13 12 12 12 9 5 4 5 5 5 4 4 4 5 5 7 8 7 7 5 4 4 4 4 3 3 2 2 2 2 2
11 9 11 10 12 13 6 8 11 9 5 4 5 7 9 10 9 8 6 6 5 4 3 2 3 3 3 5 7 7 6 4 4 4 4 4 3 2 2 2 1 1 2 2
11 10 7 10 10 5 6 9 7 4 5 6 5 5 6 7 8 8 7 6 5 4 3 2 3 3 2 3 4 6 4 4 5 4 4 3 3 2 2 2 2 1 2 2
6 5 7 8 11 10 8 8 7 7 7 6 5 5 5 7 7 6 5 4 3 2 2 2 3 4 3 2 3 3 3 4 4 4 3 3 3 2 2 2 2 2 3 3
9 7 8 11 10 8 9 9 9 7 5 5 4 4 5 5 6 5 4 3 2 1 1 1 3 3 3 3 3 2 2 3 4 4 3 3 2 2 2 2 2 3 3 3
9 10 11 11 9 9 8 5 5 6 7 6 5 5 3 4 5 4 3 2 1 1 1 1 2 3 3 3 2 2 2 3 4 3 3 2 2 2 1 1 2 3 4 6
Wind_Direction
185 206 214 211 214 234 233 229 237 240 233 239 249 258 259 255 251 251 250 249 248 249 249 245 238 229 225 221 217 214 211 206 197 191 195 200 208 207 209 213 217 217 217 216
198 226 227 221 218 223 230 238 245 254 241 252 268 268 264 256 250 248 249 247 247 248 246 239 233 227 221 219 216 214 211 205 200 199 195 198 198 205 208 207 214 217 217 216
215 222 211 210 215 220 228 234 239 248 276 257 283 273 252 245 244 247 246 247 248 246 246 242 232 225 221 219 215 211 209 205 202 199 190 182 185 190 198 207 211 216 217 216
229 226 211 213 220 218 234 228 235 243 254 259 252 278 261 241 242 241 241 240 242 241 240 240 234 228 222 220 215 212 208 205 201 195 194 192 195 198 203 203 205 206 210 215
216 209 208 218 221 214 232 216 223 236 246 260 241 259 267 231 247 243 237 236 239 239 237 235 231 228 226 220 213 210 207 203 199 197 197 198 203 204 200 197 200 203 204 212
232 219 220 223 218 208 184 171 212 232 240 249 236 239 266 228 237 241 236 238 238 237 236 236 234 229 226 217 208 206 204 201 197 197 198 199 199 197 196 199 199 201 202 207
223 224 219 203 190 191 193 188 202 212 219 241 215 230 254 240 235 243 246 250 246 238 234 232 228 222 218 211 206 204 202 202 198 196 198 200 202 200 202 203 205 202 201 207
209 220 203 200 202 194 203 206 213 225 232 238 211 235 253 252 253 252 251 253 252 242 235 230 225 220 214 208 203 201 201 202 198 196 197 199 201 202 205 206 206 207 207 212
210 224 191 204 204 193 198 215 231 247 262 263 241 248 266 255 254 247 241 241 243 240 234 226 220 216 212 206 202 199 197 197 196 195 194 195 197 199 198 196 201 207 209 214
207 226 211 191 197 216 219 198 195 213 224 242 249 248 247 223 228 231 234 237 237 235 235 227 217 211 207 203 198 194 194 189 181 181 184 186 189 190 188 189 192 196 204 215
206 214 205 189 203 202 196 204 211 214 228 235 251 250 231 232 227 231 237 238 239 237 236 226 211 198 191 188 187 186 182 175 169 169 167 162 164 171 174 178 184 187 197 215
205 214 226 225 230 230 214 212 209 214 222 233 253 258 175 223 234 235 241 238 239 239 227 212 200 190 187 187 183 182 176 170 168 163 160 156 152 151 155 164 173 181 195 209
185 201 212 220 214 203 219 221 222 231 236 229 240 256 231 242 249 243 242 241 234 230 218 203 201 202 199 194 188 183 180 173 165 160 157 156 159 158 158 156 155 162 183 203
199 208 217 225 224 200 217 223 224 224 232 238 241 254 253 249 255 255 246 243 243 235 225 218 215 213 205 199 196 190 185 176 170 165 162 162 162 162 160 157 161 169 186 208
204 224 228 248 251 225 228 228 224 226 233 241 250 254 258 257 258 261 259 257 255 251 241 231 222 217 208 201 198 195 188 181 177 173 173 172 162 152 142 141 147 161 197 229
203 225 220 244 239 235 245 239 231 231 235 242 254 260 262 268 262 258 255 254 254 255 251 241 228 220 213 206 200 195 191 185 181 181 181 169 160 155 150 147 147 154 188 226
201 196 209 244 235 235 242 232 229 230 230 234 245 254 262 258 253 253 253 251 252 253 249 240 232 223 216 209 199 197 192 180 180 182 179 173 168 165 164 161 164 182 203 219
210 202 216 228 192 231 240 228 226 233 239 237 245 258 260 262 265 262 255 254 255 253 251 244 236 230 219 207 197 193 182 180 182 181 180 178 176 172 171 175 182 199 215 234
212 205 208 211 234 255 264 233 212 222 242 242 246 257 265 272 276 266 254 246 251 256 253 247 236 224 210 199 188 178 178 177 181 185 185 183 182 178 179 185 194 207 221 238
212 210 214 218 230 239 247 221 204 212 249 246 243 254 263 262 264 269 269 248 256 261 257 244 227 205 199 192 175 172 177 179 188 189 184 180 182 184 188 190 196 218 234 245
194 207 218 227 238 250 257 204 160 202 245 255 239 248 253 245 251 278 289 272 269 269 260 239 207 192 197 172 164 174 176 188 187 167 161 169 181 186 187 183 192 212 240 255
197 204 213 218 229 241 207 173 197 234 269 285 263 259 259 259 267 278 281 279 278 275 264 222 187 184 166 160 166 175 185 176 145 147 157 165 172 174 170 174 188 211 232 253
213 211 210 212 232 253 190 210 237 265 264 267 265 269 264 267 271 274 273 275 275 268 249 198 178 163 140 153 170 177 168 141 143 146 155 160 159 164 172 181 190 210 228 243
234 224 221 234 245 248 243 249 253 251 254 262 263 266 260 264 270 270 267 267 265 264 235 175 160 162 160 144 137 146 135 137 143 152 157 160 163 172 176 191 201 215 224 238
225 206 224 242 252 261 252 246 251 254 257 263 265 256 254 258 263 261 259 255 252 261 251 164 168 168 160 132 119 106 121 137 148 152 157 164 175 181 194 214 230 239 245 248
218 216 223 241 238 238 251 237 224 238 251 255 263 272 271 249 255 258 259 261 233 207 166 149 144 140 135 125 119 101 108 139 150 155 162 170 176 184 201 221 258 263 271 276